Location: Domicella
(40.8833°N, 14.5833°E)
Time: 20:25:13
(UTC+00:00)

SL-08 R/B - Pass Details

Date: 15 May 2026
Orbit: 666 x 729 km, 98.5° (Epoch: 8 June)

Event Time Altitude Azimuth Distance (km) Brightness Sun altitude
Rises 19:42:55 0° 11° (N) 3,121 7.1 -14.9°
Reaches altitude 10° 19:45:13 10° 9° (N) 2,188 6.3 -15.3°
Maximum altitude 19:49:59 73° 286° (WNW) 733 3.5 -15.9°
Drops below altitude 10° 19:54:38 10° 202° (SSW) 2,132 5.6 -16.5°
Enters shadow 19:56:29 - 200° (SSW) 2,888 6.2 -16.8°
